Wind_Speed
68 62 61 50 50 52 54 54 47 44 44 41 44 41 41 44 42 43 41 43 44 43 42 42 41 43 39 37 38 40 42 43
67 63 62 56 54 52 55 56 54 51 51 49 44 44 46 45 44 44 42 41 43 45 46 44 44 44 44 40 44 45 46 45
70 65 62 60 55 56 54 57 57 56 54 53 50 45 45 47 47 45 48 43 44 45 49 50 50 47 46 46 48 49 48 47
71 66 64 64 60 59 59 58 57 57 58 56 53 49 48 50 49 50 49 47 46 47 49 52 52 53 48 49 52 50 51 55
75 72 72 70 69 66 62 62 60 58 59 59 57 53 50 52 53 53 52 50 49 50 50 51 51 50 55 52 54 56 58 61
77 78 76 73 72 67 65 62 58 56 59 61 59 57 56 55 56 56 53 52 52 51 53 52 50 52 54 54 56 60 63 65
80 78 77 75 74 68 66 64 64 61 60 62 63 62 59 58 56 54 52 53 52 53 54 53 52 53 54 56 60 65 67 68
83 82 78 79 79 73 67 66 66 59 61 64 64 64 63 61 56 53 50 50 53 53 54 55 56 56 58 62 65 68 70 71
76 76 83 82 82 81 74 71 71 70 68 68 66 66 65 65 65 61 58 55 53 54 55 55 58 59 62 65 66 70 72 77
72 76 83 85 88 84 79 74 73 70 67 63 62 60 60 60 60 58 56 55 55 52 52 57 58 62 63 66 70 74 78 80
75 78 80 86 91 90 82 81 76 75 75 74 71 67 63 59 59 60 61 62 61 59 58 60 61 64 67 69 74 76 79 82
85 85 85 81 83 85 84 83 83 81 78 76 75 71 67 64 58 58 58 58 59 61 63 66 68 70 71 73 76 79 82 81
92 89 85 81 81 81 81 82 84 86 81 78 77 74 72 70 65 60 61 62 62 60 61 65 67 69 74 79 79 82 83 85
92 92 88 82 81 82 82 82 87 89 84 81 81 79 77 73 69 66 62 64 62 61 62 67 72 78 80 82 79 83 83 87
92 92 92 89 86 84 83 81 82 82 86 85 82 80 79 79 74 71 70 69 66 71 74 78 78 79 78 78 80 82 85 89
100 96 93 93 91 86 85 84 82 78 78 81 84 84 83 82 81 78 76 74 76 76 75 76 77 77 78 78 81 83 86 90
101 97 93 94 92 90 89 86 86 83 79 76 77 83 85 85 84 83 82 79 78 78 77 76 75 73 76 77 80 83 87 88
104 100 96 95 96 95 91 88 87 83 82 78 76 75 80 84 84 83 81 80 78 78 75 72 71 73 73 77 81 83 86 85
95 98 98 99 99 100 93 87 84 81 79 80 78 75 73 76 80 80 79 79 78 73 69 69 72 71 76 78 80 84 84 84
Wind_Direction
251 253 257 259 266 246 247 249 250 254 254 259 258 258 260 262 263 262 264 268 270 269 272 277 277 277 279 281 281 287 291 295
248 249 254 254 261 254 247 249 252 254 254 256 258 259 259 263 263 265 263 266 268 269 269 272 273 273 278 280 283 286 287 290
249 249 252 253 256 259 255 249 254 253 254 256 257 260 262 262 260 263 264 268 269 270 272 271 273 273 277 282 283 284 288 288
243 247 248 250 254 252 255 255 251 252 253 255 257 257 260 261 261 262 266 265 273 274 276 274 275 274 279 284 284 287 290 289
242 244 245 246 249 252 254 257 259 253 252 254 257 260 260 263 262 262 264 267 273 273 278 280 279 278 282 285 285 287 285 286
244 246 248 246 247 250 254 258 257 258 252 253 256 258 259 261 263 263 266 269 271 272 275 278 279 280 280 285 285 284 284 285
238 242 245 248 249 250 250 249 254 255 252 251 251 253 256 261 264 267 268 269 268 271 273 275 278 279 281 284 285 285 284 285
239 237 239 245 248 247 245 248 249 250 250 251 253 255 256 260 265 269 268 267 269 267 268 270 276 279 281 283 283 282 283 287
242 242 241 241 245 249 246 242 246 251 249 255 258 258 258 260 263 265 267 267 266 266 268 273 275 279 281 282 282 283 286 291
245 243 240 241 242 245 248 246 243 248 250 250 254 260 263 262 262 263 263 263 264 267 267 270 274 278 277 278 281 285 289 295
246 246 245 242 243 242 244 248 247 248 250 251 253 257 261 265 264 263 265 267 268 270 271 273 274 274 275 279 285 290 295 299
243 242 242 245 247 247 245 247 247 250 250 251 255 257 259 261 264 265 267 268 269 272 274 274 273 274 278 284 290 295 298 299
247 247 245 247 248 251 249 246 248 250 251 251 253 255 257 260 261 263 266 267 268 270 273 273 273 281 287 293 294 295 297 299
246 250 251 247 250 250 251 250 248 247 250 252 253 254 256 258 260 262 265 269 273 270 270 274 279 285 289 291 293 295 296 299
239 243 249 252 251 251 251 251 252 252 250 249 251 254 254 255 257 259 261 265 267 271 275 277 282 286 289 291 290 292 295 298
236 239 243 248 250 250 252 251 252 253 253 252 250 250 252 255 257 260 262 265 268 272 275 278 282 285 287 287 288 292 295 299
240 238 239 243 247 251 252 252 252 252 254 254 253 251 251 253 257 260 264 266 269 273 277 280 282 281 283 285 289 292 296 298
244 241 239 243 247 248 251 253 255 255 254 256 255 254 253 253 256 258 262 266 269 272 276 276 275 278 282 285 289 293 296 299
244 245 243 241 242 247 249 251 253 256 256 256 255 255 256 255 255 259 262 265 267 270 270 271 274 279 283 287 289 294 298 298
Height
10782 10788 10792 10802 10797 10805 10807 10809 10811 10813 10815 10818 10819 10821 10823 10823 10825 10826 10826 10826 10826 10825 10825 10824 10823 10822 10820 10818 10815 10813 10810 10808
10769 10778 10785 10790 10789 10794 10797 10800 10802 10804 10806 10809 10811 10813 10814 10815 10817 10817 10817 10817 10818 10817 10817 10817 10815 10815 10813 10811 10808 10805 10801 10799
10757 10766 10775 10775 10780 10782 10785 10788 10792 10794 10796 10800 10803 10805 10805 10805 10807 10808 10808 10809 10809 10809 10808 10808 10807 10806 10804 10802 10799 10796 10792 10789
10747 10753 10760 10764 10767 10770 10773 10777 10779 10783 10786 10789 10792 10795 10796 10796 10797 10798 10799 10800 10800 10800 10799 10798 10797 10796 10794 10791 10789 10786 10782 10778
10731 10738 10743 10751 10751 10758 10762 10765 10768 10772 10776 10778 10782 10785 10784 10784 10785 10787 10788 10789 10790 10789 10788 10787 10786 10785 10783 10780 10778 10775 10771 10767
10715 10721 10725 10734 10738 10745 10749 10753 10756 10759 10763 10766 10770 10771 10773 10774 10774 10776 10778 10779 10779 10778 10777 10776 10775 10773 10771 10769 10766 10763 10759 10754
10697 10704 10713 10720 10725 10731 10736 10742 10744 10748 10750 10752 10754 10758 10761 10763 10764 10766 10768 10768 10768 10767 10767 10765 10764 10761 10759 10756 10753 10750 10745 10740
10679 10689 10699 10703 10708 10714 10723 10727 10732 10734 10736 10740 10743 10747 10750 10752 10754 10756 10756 10757 10756 10756 10756 10755 10753 10749 10747 10744 10740 10735 10730 10725
10668 10680 10681 10687 10692 10696 10706 10711 10716 10720 10724 10728 10732 10736 10738 10741 10743 10744 10745 10745 10745 10745 10744 10742 10740 10737 10735 10730 10726 10721 10715 10709
10653 10657 10661 10668 10671 10678 10688 10695 10702 10708 10712 10716 10719 10722 10724 10727 10730 10731 10732 10733 10733 10732 10730 10729 10727 10725 10720 10716 10711 10706 10699 10692
10636 10637 10640 10646 10648 10662 10672 10679 10688 10694 10698 10702 10705 10708 10711 10714 10716 10717 10718 10720 10720 10719 10718 10716 10713 10709 10705 10700 10696 10689 10684 10677
10606 10608 10615 10628 10640 10649 10660 10665 10670 10675 10679 10686 10690 10693 10697 10700 10703 10704 10705 10705 10706 10705 10704 10701 10698 10694 10690 10685 10680 10674 10668 10660
10584 10593 10606 10618 10625 10632 10639 10648 10652 10655 10665 10670 10674 10677 10681 10685 10688 10690 10691 10691 10692 10690 10689 10686 10683 10679 10674 10670 10664 10658 10651 10644
10574 10577 10589 10604 10608 10615 10619 10627 10632 10639 10648 10654 10658 10662 10668 10670 10672 10674 10676 10676 10677 10676 10674 10671 10667 10664 10659 10655 10648 10642 10635 10628
10557 10563 10571 10582 10589 10594 10601 10609 10613 10621 10629 10636 10642 10647 10650 10653 10657 10660 10661 10662 10662 10662 10660 10656 10653 10649 10644 10639 10632 10626 10619 10611
10537 10546 10553 10560 10566 10575 10581 10592 10596 10603 10610 10617 10623 10628 10633 10636 10640 10643 10645 10646 10647 10646 10644 10641 10638 10633 10628 10623 10616 10610 10603 10595
10513 10527 10537 10542 10549 10557 10562 10572 10577 10587 10594 10599 10604 10609 10614 10620 10623 10626 10628 10629 10630 10629 10628 10625 10622 10617 10612 10606 10601 10595 10587 10579
10491 10507 10519 10524 10530 10536 10547 10556 10561 10571 10578 10584 10588 10592 10596 10601 10605 10608 10611 10613 10613 10612 10611 10608 10605 10601 10596 10591 10585 10578 10571 10562
10478 10484 10494 10501 10507 10510 10526 10539 10545 10554 10562 10565 10570 10574 10579 10583 10587 10591 10594 10596 10596 10596 10594 10592 10590 10586 10581 10576 10570 10562 10554 10545